This demonstration page uses our WeatherBlox Daily Observations layout. Learn more.

Left ArrowRight Arrow

Hourly Observations for January 16, 2022

Temp ( °F °C ) Dew Point ( °F °C ) Humidity (%) Winds ( mph kmh ) Pressure ( in mb ) Visibility ( mi km ) Precip ( " mm )
12:52 am 00:52 Mostly Clear 7 -13.9 3 -16.1 84 84 SSE 7 11 30.23 1024 10 16 0.00 0.00
1:52 am 01:52 Clear 4 -15.6 1 -17.2 88 88 SSE 9 15 30.22 1024 10 16 0.00 0.00
2:52 am 02:52 Mostly Clear 4 -15.6 0 -17.8 83 83 SE 10 17 30.18 1022 10 16 0.00 0.00
3:52 am 03:52 Clear 7 -13.9 3 -16.1 84 84 SSE 12 19 30.11 1020 10 16 0.00 0.00
4:52 am 04:52 Partly Cloudy 8 -13.3 4 -15.6 83 83 S 12 19 30.08 1019 10 16 0.00 0.00
5:52 am 05:52 Mostly Cloudy 8 -13.3 4 -15.6 83 83 SSE 14 22 30.05 1018 10 16 0.00 0.00
6:52 am 06:52 Cloudy 11 -11.7 7 -13.9 84 84 SSE 14 22 29.99 1016 10 16 0.00 0.00
6:59 am 06:59 Cloudy 11 -11.7 7 -13.9 84 84 S 14 22 30.04 1017 10 16 0.00 0.00
7:52 am 07:52 Mostly Cloudy 12 -11.1 8 -13.3 84 84 SSE 12 19 29.99 1016 10 16 0.00 0.00
8:52 am 08:52 Mostly Cloudy 13 -10.6 9 -12.8 84 84 S 10 17 29.98 1015 10 16 0.00 0.00
9:52 am 09:52 Mostly Cloudy 16 -8.9 11 -11.7 80 80 SSE 8 13 29.97 1015 10 16 0.00 0.00
10:52 am 10:52 Partly Cloudy 20 -6.7 14 -10 78 78 SSE 9 15 29.96 1015 10 16 0.00 0.00
11:52 am 11:52 Mostly Sunny 24 -4.4 16 -8.9 71 71 SE 7 11 29.94 1014 10 16 0.00 0.00
12:52 pm 12:52 Mostly Sunny 33 0.6 22 -5.6 64 64 NW 7 11 29.91 1013 10 16 0.00 0.00
1:52 pm 13:52 Mostly Cloudy 36 2.2 26 -3.3 67 67 NNW 5 7 29.91 1013 10 16 0.00 0.00
2:52 pm 14:52 Mostly Cloudy 34 1.1 26 -3.3 73 73 N 10 17 29.93 1013 10 16 0.00 0.00
3:52 pm 15:52 Mostly Cloudy 36 2.2 29 -1.7 76 76 N 8 13 29.93 1014 10 16 0.00 0.00
4:52 pm 16:52 Partly Cloudy 32 0 26 -3.3 79 79 NNW 7 11 29.96 1015 10 16 0.00 0.00
5:52 pm 17:52 Mostly Cloudy 37 2.8 30 -1.1 76 76 N 7 11 29.97 1015 10 16 0.00 0.00
6:52 pm 18:52 Mostly Cloudy 37 2.8 30 -1.1 76 76 N 10 17 29.98 1015 10 16 0.00 0.00
7:52 pm 19:52 Clear 38 3.3 30 -1.1 73 73 NW 14 22 30.01 1016 10 16 0.00 0.00
8:52 pm 20:52 Clear 37 2.8 29 -1.7 73 73 NW 13 20 30.02 1017 10 16 0.00 0.00
9:52 pm 21:52 Clear 35 1.7 27 -2.8 72 72 NW 14 22 30.02 1017 10 16 0.00 0.00
10:52 pm 22:52 Clear 30 -1.1 25 -3.9 82 82 NNW 9 15 30.03 1017 10 16 0.00 0.00
11:52 pm 23:52 Clear 31 -0.6 25 -3.9 79 79 NW 12 19 30.03 1017 10 16 0.00 0.00

Powered by AerisWeather